Home   Weather   Elizabeth   Past weeks

Flag for USA Past Weather in Elizabeth, New Jersey, USA — Yesterday and Last 2 Weeks

Now
72 °F

Cloudy.


Feels Like: 76 °F
Forecast: 60 / 71 °F
Wind: 9 mph from West

Location: Newark International Airport

Current Time: May 27, 2017 at 7:06:03 pm

Latest Report: May 27, 2017 at 5:51 pm


Visibility: 10 mi

Pressure: 29.86 "Hg

Humidity: 57%

Dew Point: 56 °F

Location of ElizabethLocation

Past Weather in Elizabeth — Graph

°F

Elizabeth Temperature Yesterday

Maximum temperature yesterday: 76 °F (at 3:51 pm)
Minimum temperature yesterday: 55 °F (at 5:51 am)
Average temperature yesterday: 63 °F

High & Low Weather Summary for the Past Weeks

 TemperatureHumidityPressure
High94 °F (May 18, 2:51 pm)100% (May 13, 3:44 pm)30.38 "Hg (May 13, 3:44 pm)
Low43 °F (May 13, 8:51 pm)28% (May 21, 10:51 am)29.44 "Hg (May 26, 1:51 am)
Average64 °F67%29.88 "Hg
* Reported May 12 5:51 pm — May 27 5:51 pm, Elizabeth. Weather by CustomWeather, © 2017

Note: Actual official high and low records may vary slightly from our data, if they occured in-between our weather recording intervals... More about our weather records

Advertising

Elizabeth Weather History for the Previous 24 Hours

Scroll right to see more
 ConditionsComfort  
Time TempWeatherWind HumidityBarometerVisibility
5:51 pm
Sat, May 27
72 °FCloudy.9 mph57%29.86 "Hg10 mi
4:51 pm73 °FMostly cloudy.8 mph51%29.86 "Hg10 mi
3:51 pm73 °FMostly cloudy.7 mph50%29.86 "Hg10 mi
2:51 pm73 °FMostly cloudy.7 mph50%29.86 "Hg10 mi
1:51 pm73 °FCloudy.12 mph53%29.86 "Hg10 mi
12:51 pm70 °FPartly sunny.8 mph59%29.86 "Hg10 mi
11:51 am71 °FPartly sunny.8 mph55%29.86 "Hg10 mi
10:51 am70 °FPartly sunny.7 mph57%29.87 "Hg10 mi
9:51 am69 °FBroken clouds.6 mph59%29.87 "Hg10 mi
8:51 am68 °FScattered clouds.9 mph61%29.87 "Hg10 mi
7:51 am64 °FBroken clouds.No wind75%29.87 "Hg10 mi
6:51 am61 °FBroken clouds.No wind83%29.87 "Hg10 mi
5:51 am59 °FScattered clouds.5 mph84%29.86 "Hg10 mi
4:51 am58 °FPassing clouds.5 mph84%29.85 "Hg10 mi
3:51 am60 °FPassing clouds.3 mph78%29.83 "Hg10 mi
2:51 am61 °FClear.3 mph75%29.81 "Hg10 mi
1:51 am63 °FClear.7 mph70%29.82 "Hg10 mi
12:51 am65 °FPassing clouds.13 mph66%29.81 "Hg10 mi
11:51 pm
Fri, May 26
66 °FPassing clouds.12 mph63%29.81 "Hg10 mi
10:51 pm68 °FPartly cloudy.6 mph61%29.79 "Hg10 mi
9:51 pm70 °FPartly cloudy.13 mph57%29.77 "Hg10 mi
8:51 pm70 °FPassing clouds.9 mph64%29.73 "Hg10 mi
7:51 pm71 °FScattered clouds.13 mph61%29.70 "Hg10 mi
Weather by CustomWeather, © 2017

See weather overviewHow to use our weather pages